owner,sensor,date,latitude,longitude,vertical_datum,sea_water_practical_salinity,qcFlag 
ENP,ioos.station.NOAA.NDBC:TCVF1:1,2019-09-01T01:00:00Z,25.2130,-80.5330,1.5,6.65,11111222 
ENP,ioos.station.NOAA.NDBC:TCVF1:1,2019-09-01T03:00:00Z,25.2130,-80.5330,1.5,6.61,11111222 
ENP,ioos.station.NOAA.NDBC:TCVF1:1,2019-09-01T04:00:00Z,25.2130,-80.5330,1.5,26.13,11111222 
ENP,ioos.station.NOAA.NDBC:TCVF1:1,2019-09-01T05:00:00Z,25.2130,-80.5330,1.5,28.19,11111222 
ENP,ioos.station.NOAA.NDBC:TCVF1:1,2019-09-01T06:00:00Z,25.2130,-80.5330,1.5,28.7,11111222 
ENP,ioos.station.NOAA.NDBC:TCVF1:1,2019-09-01T07:00:00Z,25.2130,-80.5330,1.5,15.0,11111222 
ENP,ioos.station.NOAA.NDBC:TCVF1:1,2019-09-01T08:00:00Z,25.2130,-80.5330,1.5,29.85,11111222 
ENP,ioos.station.NOAA.NDBC:TCVF1:1,2019-09-01T09:00:00Z,25.2130,-80.5330,1.5,30.93,11111222 
ENP,ioos.station.NOAA.NDBC:TCVF1:1,2019-09-01T10:00:00Z,25.2130,-80.5330,1.5,11.97,11111222 
ENP,ioos.station.NOAA.NDBC:TCVF1:1,2019-09-01T11:00:00Z,25.2130,-80.5330,1.5,27.27,11111222 
ENP,ioos.station.NOAA.NDBC:TCVF1:1,2019-09-01T12:00:00Z,25.2130,-80.5330,1.5,10.23,11111222 
ENP,ioos.station.NOAA.NDBC:TCVF1:1,2019-09-01T13:00:00Z,25.2130,-80.5330,1.5,9.46,11111222 
ENP,ioos.station.NOAA.NDBC:TCVF1:1,2019-09-01T14:00:00Z,25.2130,-80.5330,1.5,8.41,11111222 
ENP,ioos.station.NOAA.NDBC:TCVF1:1,2019-09-01T15:00:00Z,25.2130,-80.5330,1.5,8.1,11111222 
ENP,ioos.station.NOAA.NDBC:TCVF1:1,2019-09-01T16:00:00Z,25.2130,-80.5330,1.5,22.2,11111222 
ENP,ioos.station.NOAA.NDBC:TCVF1:1,2019-09-01T17:00:00Z,25.2130,-80.5330,1.5,31.08,11111222 
ENP,ioos.station.NOAA.NDBC:TCVF1:1,2019-09-01T18:00:00Z,25.2130,-80.5330,1.5,32.46,11111222 
ENP,ioos.station.NOAA.NDBC:TCVF1:1,2019-09-01T19:00:00Z,25.2130,-80.5330,1.5,32.75,11111222 
ENP,ioos.station.NOAA.NDBC:TCVF1:1,2019-09-01T20:00:00Z,25.2130,-80.5330,1.5,32.31,11111222 
ENP,ioos.station.NOAA.NDBC:TCVF1:1,2019-09-01T21:00:00Z,25.2130,-80.5330,1.5,32.38,11111222 
ENP,ioos.station.NOAA.NDBC:TCVF1:1,2019-09-01T22:00:00Z,25.2130,-80.5330,1.5,32.9,11111222 
ENP,ioos.station.NOAA.NDBC:TCVF1:1,2019-09-01T23:00:00Z,25.2130,-80.5330,1.5,31.87,11111222 
ENP,ioos.station.NOAA.NDBC:TCVF1:1,2019-09-02T00:00:00Z,25.2130,-80.5330,1.5,32.6,11111222 
ENP,ioos.station.NOAA.NDBC:TCVF1:1,2019-09-02T01:00:00Z,25.2130,-80.5330,1.5,21.65,11111222 
ENP,ioos.station.NOAA.NDBC:TCVF1:1,2019-09-02T03:00:00Z,25.2130,-80.5330,1.5,16.67,11111222 
ENP,ioos.station.NOAA.NDBC:TCVF1:1,2019-09-02T04:00:00Z,25.2130,-80.5330,1.5,29.99,11111222 
ENP,ioos.station.NOAA.NDBC:TCVF1:1,2019-09-02T05:00:00Z,25.2130,-80.5330,1.5,31.95,11111222 
ENP,ioos.station.NOAA.NDBC:TCVF1:1,2019-09-02T06:00:00Z,25.2130,-80.5330,1.5,32.53,11111222 
ENP,ioos.station.NOAA.NDBC:TCVF1:1,2019-09-02T07:00:00Z,25.2130,-80.5330,1.5,32.82,11111222 
ENP,ioos.station.NOAA.NDBC:TCVF1:1,2019-09-02T08:00:00Z,25.2130,-80.5330,1.5,32.97,11111222 
ENP,ioos.station.NOAA.NDBC:TCVF1:1,2019-09-02T09:00:00Z,25.2130,-80.5330,1.5,33.12,11111222 
ENP,ioos.station.NOAA.NDBC:TCVF1:1,2019-09-02T10:00:00Z,25.2130,-80.5330,1.5,33.19,11111222 
ENP,ioos.station.NOAA.NDBC:TCVF1:1,2019-09-02T11:00:00Z,25.2130,-80.5330,1.5,33.19,11111222 
ENP,ioos.station.NOAA.NDBC:TCVF1:1,2019-09-02T14:00:00Z,25.2130,-80.5330,1.5,32.97,11111222 
ENP,ioos.station.NOAA.NDBC:TCVF1:1,2019-09-02T15:00:00Z,25.2130,-80.5330,1.5,16.4,11111222 
ENP,ioos.station.NOAA.NDBC:TCVF1:1,2019-09-02T16:00:00Z,25.2130,-80.5330,1.5,14.86,11111222 
ENP,ioos.station.NOAA.NDBC:TCVF1:1,2019-09-02T17:00:00Z,25.2130,-80.5330,1.5,30.28,11111222 
ENP,ioos.station.NOAA.NDBC:TCVF1:1,2019-09-02T18:00:00Z,25.2130,-80.5330,1.5,31.66,11111222 
ENP,ioos.station.NOAA.NDBC:TCVF1:1,2019-09-02T19:00:00Z,25.2130,-80.5330,1.5,32.17,11111222 
ENP,ioos.station.NOAA.NDBC:TCVF1:1,2019-09-02T20:00:00Z,25.2130,-80.5330,1.5,32.38,11111222 
ENP,ioos.station.NOAA.NDBC:TCVF1:1,2019-09-02T21:00:00Z,25.2130,-80.5330,1.5,32.75,11111222 
ENP,ioos.station.NOAA.NDBC:TCVF1:1,2019-09-02T22:00:00Z,25.2130,-80.5330,1.5,32.68,11111222 
ENP,ioos.station.NOAA.NDBC:TCVF1:1,2019-09-02T23:00:00Z,25.2130,-80.5330,1.5,32.68,11111222 
ENP,ioos.station.NOAA.NDBC:TCVF1:1,2019-09-03T03:00:00Z,25.2130,-80.5330,1.5,32.75,11111222 
ENP,ioos.station.NOAA.NDBC:TCVF1:1,2019-09-03T04:00:00Z,25.2130,-80.5330,1.5,32.75,11111222 
ENP,ioos.station.NOAA.NDBC:TCVF1:1,2019-09-03T05:00:00Z,25.2130,-80.5330,1.5,32.6,11111222 
ENP,ioos.station.NOAA.NDBC:TCVF1:1,2019-09-03T06:00:00Z,25.2130,-80.5330,1.5,32.46,11111222 
ENP,ioos.station.NOAA.NDBC:TCVF1:1,2019-09-03T07:00:00Z,25.2130,-80.5330,1.5,32.24,11111222 
ENP,ioos.station.NOAA.NDBC:TCVF1:1,2019-09-03T08:00:00Z,25.2130,-80.5330,1.5,31.95,11111222 
ENP,ioos.station.NOAA.NDBC:TCVF1:1,2019-09-03T09:00:00Z,25.2130,-80.5330,1.5,31.37,11111222 
ENP,ioos.station.NOAA.NDBC:TCVF1:1,2019-09-03T10:00:00Z,25.2130,-80.5330,1.5,31.8,11111222 
ENP,ioos.station.NOAA.NDBC:TCVF1:1,2019-09-03T11:00:00Z,25.2130,-80.5330,1.5,31.58,11111222 
ENP,ioos.station.NOAA.NDBC:TCVF1:1,2019-09-03T12:00:00Z,25.2130,-80.5330,1.5,31.87,11111222 
ENP,ioos.station.NOAA.NDBC:TCVF1:1,2019-09-03T13:00:00Z,25.2130,-80.5330,1.5,32.02,11111222 
ENP,ioos.station.NOAA.NDBC:TCVF1:1,2019-09-03T14:00:00Z,25.2130,-80.5330,1.5,32.09,11111222 
ENP,ioos.station.NOAA.NDBC:TCVF1:1,2019-09-03T15:00:00Z,25.2130,-80.5330,1.5,31.87,11111222 
ENP,ioos.station.NOAA.NDBC:TCVF1:1,2019-09-03T16:00:00Z,25.2130,-80.5330,1.5,31.87,11111222 
ENP,ioos.station.NOAA.NDBC:TCVF1:1,2019-09-03T17:00:00Z,25.2130,-80.5330,1.5,32.82,11111222 
ENP,ioos.station.NOAA.NDBC:TCVF1:1,2019-09-03T18:00:00Z,25.2130,-80.5330,1.5,31.66,11111222 
ENP,ioos.station.NOAA.NDBC:TCVF1:1,2019-09-03T19:00:00Z,25.2130,-80.5330,1.5,31.51,11111222 
ENP,ioos.station.NOAA.NDBC:TCVF1:1,2019-09-03T20:00:00Z,25.2130,-80.5330,1.5,31.44,11111222 
ENP,ioos.station.NOAA.NDBC:TCVF1:1,2019-09-03T21:00:00Z,25.2130,-80.5330,1.5,31.58,11111222 
ENP,ioos.station.NOAA.NDBC:TCVF1:1,2019-09-03T22:00:00Z,25.2130,-80.5330,1.5,31.51,11111222 
ENP,ioos.station.NOAA.NDBC:TCVF1:1,2019-09-03T23:00:00Z,25.2130,-80.5330,1.5,31.51,11111222 
ENP,ioos.station.NOAA.NDBC:TCVF1:1,2019-09-04T01:00:00Z,25.2130,-80.5330,1.5,31.66,11111222 
ENP,ioos.station.NOAA.NDBC:TCVF1:1,2019-09-04T03:00:00Z,25.2130,-80.5330,1.5,31.87,11111222 
ENP,ioos.station.NOAA.NDBC:TCVF1:1,2019-09-04T04:00:00Z,25.2130,-80.5330,1.5,31.87,11111222 
ENP,ioos.station.NOAA.NDBC:TCVF1:1,2019-09-04T05:00:00Z,25.2130,-80.5330,1.5,31.95,11111222 
ENP,ioos.station.NOAA.NDBC:TCVF1:1,2019-09-04T06:00:00Z,25.2130,-80.5330,1.5,31.95,11111222 
ENP,ioos.station.NOAA.NDBC:TCVF1:1,2019-09-04T07:00:00Z,25.2130,-80.5330,1.5,31.87,11111222 
ENP,ioos.station.NOAA.NDBC:TCVF1:1,2019-09-04T08:00:00Z,25.2130,-80.5330,1.5,31.8,11111222 
ENP,ioos.station.NOAA.NDBC:TCVF1:1,2019-09-04T09:00:00Z,25.2130,-80.5330,1.5,31.8,11111222 
ENP,ioos.station.NOAA.NDBC:TCVF1:1,2019-09-04T10:00:00Z,25.2130,-80.5330,1.5,31.87,11111222 
ENP,ioos.station.NOAA.NDBC:TCVF1:1,2019-09-04T11:00:00Z,25.2130,-80.5330,1.5,31.87,11111222 
ENP,ioos.station.NOAA.NDBC:TCVF1:1,2019-09-04T12:00:00Z,25.2130,-80.5330,1.5,31.87,11111222 
ENP,ioos.station.NOAA.NDBC:TCVF1:1,2019-09-04T13:00:00Z,25.2130,-80.5330,1.5,31.87,11111222 
ENP,ioos.station.NOAA.NDBC:TCVF1:1,2019-09-04T14:00:00Z,25.2130,-80.5330,1.5,31.87,11111222 
ENP,ioos.station.NOAA.NDBC:TCVF1:1,2019-09-04T15:00:00Z,25.2130,-80.5330,1.5,31.95,11111222 
ENP,ioos.station.NOAA.NDBC:TCVF1:1,2019-09-04T16:00:00Z,25.2130,-80.5330,1.5,31.87,11111222 
ENP,ioos.station.NOAA.NDBC:TCVF1:1,2019-09-04T17:00:00Z,25.2130,-80.5330,1.5,31.95,11111222 
ENP,ioos.station.NOAA.NDBC:TCVF1:1,2019-09-04T18:00:00Z,25.2130,-80.5330,1.5,31.95,11111222 
ENP,ioos.station.NOAA.NDBC:TCVF1:1,2019-09-04T19:00:00Z,25.2130,-80.5330,1.5,32.09,11111222 
ENP,ioos.station.NOAA.NDBC:TCVF1:1,2019-09-04T20:00:00Z,25.2130,-80.5330,1.5,32.17,11111222 
ENP,ioos.station.NOAA.NDBC:TCVF1:1,2019-09-04T21:00:00Z,25.2130,-80.5330,1.5,32.24,11111222 
ENP,ioos.station.NOAA.NDBC:TCVF1:1,2019-09-04T22:00:00Z,25.2130,-80.5330,1.5,32.24,11111222 
ENP,ioos.station.NOAA.NDBC:TCVF1:1,2019-09-04T23:00:00Z,25.2130,-80.5330,1.5,35.1,11111222 
ENP,ioos.station.NOAA.NDBC:TCVF1:1,2019-09-05T00:00:00Z,25.2130,-80.5330,1.5,32.38,11111222 
ENP,ioos.station.NOAA.NDBC:TCVF1:1,2019-09-05T01:00:00Z,25.2130,-80.5330,1.5,32.46,11111222 
ENP,ioos.station.NOAA.NDBC:TCVF1:1,2019-09-05T03:00:00Z,25.2130,-80.5330,1.5,32.53,11111222 
ENP,ioos.station.NOAA.NDBC:TCVF1:1,2019-09-05T04:00:00Z,25.2130,-80.5330,1.5,32.38,11111222 
ENP,ioos.station.NOAA.NDBC:TCVF1:1,2019-09-05T05:00:00Z,25.2130,-80.5330,1.5,31.44,11111222 
ENP,ioos.station.NOAA.NDBC:TCVF1:1,2019-09-05T06:00:00Z,25.2130,-80.5330,1.5,29.85,11111222 
ENP,ioos.station.NOAA.NDBC:TCVF1:1,2019-09-05T07:00:00Z,25.2130,-80.5330,1.5,31.44,11111222 
ENP,ioos.station.NOAA.NDBC:TCVF1:1,2019-09-05T08:00:00Z,25.2130,-80.5330,1.5,31.73,11111222 
ENP,ioos.station.NOAA.NDBC:TCVF1:1,2019-09-05T09:00:00Z,25.2130,-80.5330,1.5,31.87,11111222 
ENP,ioos.station.NOAA.NDBC:TCVF1:1,2019-09-05T10:00:00Z,25.2130,-80.5330,1.5,31.73,11111222 
ENP,ioos.station.NOAA.NDBC:TCVF1:1,2019-09-05T11:00:00Z,25.2130,-80.5330,1.5,31.58,11111222 
ENP,ioos.station.NOAA.NDBC:TCVF1:1,2019-09-05T12:00:00Z,25.2130,-80.5330,1.5,31.58,11111222 
ENP,ioos.station.NOAA.NDBC:TCVF1:1,2019-09-05T13:00:00Z,25.2130,-80.5330,1.5,31.66,11111222 
ENP,ioos.station.NOAA.NDBC:TCVF1:1,2019-09-05T14:00:00Z,25.2130,-80.5330,1.5,31.73,11111222 
ENP,ioos.station.NOAA.NDBC:TCVF1:1,2019-09-05T15:00:00Z,25.2130,-80.5330,1.5,28.62,11111222 
ENP,ioos.station.NOAA.NDBC:TCVF1:1,2019-09-05T16:00:00Z,25.2130,-80.5330,1.5,29.56,11111222 
ENP,ioos.station.NOAA.NDBC:TCVF1:1,2019-09-05T17:00:00Z,25.2130,-80.5330,1.5,25.07,11111222 
ENP,ioos.station.NOAA.NDBC:TCVF1:1,2019-09-05T18:00:00Z,25.2130,-80.5330,1.5,22.13,11111222 
ENP,ioos.station.NOAA.NDBC:TCVF1:1,2019-09-05T19:00:00Z,25.2130,-80.5330,1.5,26.56,11111222 
ENP,ioos.station.NOAA.NDBC:TCVF1:1,2019-09-05T20:00:00Z,25.2130,-80.5330,1.5,29.7,11111222 
ENP,ioos.station.NOAA.NDBC:TCVF1:1,2019-09-05T21:00:00Z,25.2130,-80.5330,1.5,26.56,11111222 
ENP,ioos.station.NOAA.NDBC:TCVF1:1,2019-09-05T22:00:00Z,25.2130,-80.5330,1.5,30.71,11111222 
ENP,ioos.station.NOAA.NDBC:TCVF1:1,2019-09-05T23:00:00Z,25.2130,-80.5330,1.5,31.29,11111222 
ENP,ioos.station.NOAA.NDBC:TCVF1:1,2019-09-06T01:00:00Z,25.2130,-80.5330,1.5,18.49,11111222 
ENP,ioos.station.NOAA.NDBC:TCVF1:1,2019-09-06T03:00:00Z,25.2130,-80.5330,1.5,16.0,11111222 
ENP,ioos.station.NOAA.NDBC:TCVF1:1,2019-09-06T05:00:00Z,25.2130,-80.5330,1.5,14.4,11111222 
ENP,ioos.station.NOAA.NDBC:TCVF1:1,2019-09-06T06:00:00Z,25.2130,-80.5330,1.5,14.0,11111222 
ENP,ioos.station.NOAA.NDBC:TCVF1:1,2019-09-06T07:00:00Z,25.2130,-80.5330,1.5,13.41,11111222 
ENP,ioos.station.NOAA.NDBC:TCVF1:1,2019-09-06T08:00:00Z,25.2130,-80.5330,1.5,13.28,11111222 
ENP,ioos.station.NOAA.NDBC:TCVF1:1,2019-09-06T09:00:00Z,25.2130,-80.5330,1.5,14.53,11111222 
ENP,ioos.station.NOAA.NDBC:TCVF1:1,2019-09-06T10:00:00Z,25.2130,-80.5330,1.5,13.21,11111222 
ENP,ioos.station.NOAA.NDBC:TCVF1:1,2019-09-06T11:00:00Z,25.2130,-80.5330,1.5,13.47,11111222 
ENP,ioos.station.NOAA.NDBC:TCVF1:1,2019-09-06T12:00:00Z,25.2130,-80.5330,1.5,28.91,11111222 
ENP,ioos.station.NOAA.NDBC:TCVF1:1,2019-09-06T13:00:00Z,25.2130,-80.5330,1.5,30.86,11111222 
ENP,ioos.station.NOAA.NDBC:TCVF1:1,2019-09-06T14:00:00Z,25.2130,-80.5330,1.5,16.8,11111222 
ENP,ioos.station.NOAA.NDBC:TCVF1:1,2019-09-06T15:00:00Z,25.2130,-80.5330,1.5,14.4,11111222 
ENP,ioos.station.NOAA.NDBC:TCVF1:1,2019-09-06T16:00:00Z,25.2130,-80.5330,1.5,13.8,11111222 
ENP,ioos.station.NOAA.NDBC:TCVF1:1,2019-09-06T17:00:00Z,25.2130,-80.5330,1.5,12.75,11111222 
ENP,ioos.station.NOAA.NDBC:TCVF1:1,2019-09-06T18:00:00Z,25.2130,-80.5330,1.5,12.69,11111222 
ENP,ioos.station.NOAA.NDBC:TCVF1:1,2019-09-06T19:00:00Z,25.2130,-80.5330,1.5,12.36,11111222 
ENP,ioos.station.NOAA.NDBC:TCVF1:1,2019-09-06T20:00:00Z,25.2130,-80.5330,1.5,27.55,11111222 
ENP,ioos.station.NOAA.NDBC:TCVF1:1,2019-09-06T21:00:00Z,25.2130,-80.5330,1.5,30.21,11111222 
ENP,ioos.station.NOAA.NDBC:TCVF1:1,2019-09-06T22:00:00Z,25.2130,-80.5330,1.5,30.35,11111222 
ENP,ioos.station.NOAA.NDBC:TCVF1:1,2019-09-06T23:00:00Z,25.2130,-80.5330,1.5,29.92,11111222 
ENP,ioos.station.NOAA.NDBC:TCVF1:1,2019-09-07T01:00:00Z,25.2130,-80.5330,1.5,31.44,11111222 
ENP,ioos.station.NOAA.NDBC:TCVF1:1,2019-09-07T03:00:00Z,25.2130,-80.5330,1.5,15.2,11111222 
ENP,ioos.station.NOAA.NDBC:TCVF1:1,2019-09-07T04:00:00Z,25.2130,-80.5330,1.5,14.4,11111222 
ENP,ioos.station.NOAA.NDBC:TCVF1:1,2019-09-07T05:00:00Z,25.2130,-80.5330,1.5,12.82,11111222 
ENP,ioos.station.NOAA.NDBC:TCVF1:1,2019-09-07T06:00:00Z,25.2130,-80.5330,1.5,12.62,11111222 
ENP,ioos.station.NOAA.NDBC:TCVF1:1,2019-09-07T07:00:00Z,25.2130,-80.5330,1.5,13.54,11111222 
ENP,ioos.station.NOAA.NDBC:TCVF1:1,2019-09-07T08:00:00Z,25.2130,-80.5330,1.5,12.69,11111222 
ENP,ioos.station.NOAA.NDBC:TCVF1:1,2019-09-07T09:00:00Z,25.2130,-80.5330,1.5,12.49,11111222 
ENP,ioos.station.NOAA.NDBC:TCVF1:1,2019-09-07T10:00:00Z,25.2130,-80.5330,1.5,31.29,11111222 
ENP,ioos.station.NOAA.NDBC:TCVF1:1,2019-09-07T11:00:00Z,25.2130,-80.5330,1.5,31.8,11111222 
ENP,ioos.station.NOAA.NDBC:TCVF1:1,2019-09-07T12:00:00Z,25.2130,-80.5330,1.5,32.02,11111222 
ENP,ioos.station.NOAA.NDBC:TCVF1:1,2019-09-07T13:00:00Z,25.2130,-80.5330,1.5,32.24,11111222 
ENP,ioos.station.NOAA.NDBC:TCVF1:1,2019-09-07T14:00:00Z,25.2130,-80.5330,1.5,32.24,11111222 
ENP,ioos.station.NOAA.NDBC:TCVF1:1,2019-09-07T15:00:00Z,25.2130,-80.5330,1.5,32.24,11111222 
ENP,ioos.station.NOAA.NDBC:TCVF1:1,2019-09-07T16:00:00Z,25.2130,-80.5330,1.5,32.24,11111222 
ENP,ioos.station.NOAA.NDBC:TCVF1:1,2019-09-07T17:00:00Z,25.2130,-80.5330,1.5,32.24,11111222 
ENP,ioos.station.NOAA.NDBC:TCVF1:1,2019-09-07T18:00:00Z,25.2130,-80.5330,1.5,32.17,11111222 
ENP,ioos.station.NOAA.NDBC:TCVF1:1,2019-09-07T19:00:00Z,25.2130,-80.5330,1.5,32.09,11111222 
ENP,ioos.station.NOAA.NDBC:TCVF1:1,2019-09-07T20:00:00Z,25.2130,-80.5330,1.5,32.09,11111222 
ENP,ioos.station.NOAA.NDBC:TCVF1:1,2019-09-07T21:00:00Z,25.2130,-80.5330,1.5,32.09,11111222 
ENP,ioos.station.NOAA.NDBC:TCVF1:1,2019-09-07T22:00:00Z,25.2130,-80.5330,1.5,32.09,11111222 
ENP,ioos.station.NOAA.NDBC:TCVF1:1,2019-09-07T23:00:00Z,25.2130,-80.5330,1.5,32.17,11111222 
ENP,ioos.station.NOAA.NDBC:TCVF1:1,2019-09-08T00:00:00Z,25.2130,-80.5330,1.5,32.17,11111222 
ENP,ioos.station.NOAA.NDBC:TCVF1:1,2019-09-08T01:00:00Z,25.2130,-80.5330,1.5,32.31,11111222 
ENP,ioos.station.NOAA.NDBC:TCVF1:1,2019-09-08T03:00:00Z,25.2130,-80.5330,1.5,25.56,11111222 
ENP,ioos.station.NOAA.NDBC:TCVF1:1,2019-09-08T04:00:00Z,25.2130,-80.5330,1.5,14.6,11111222 
ENP,ioos.station.NOAA.NDBC:TCVF1:1,2019-09-08T05:00:00Z,25.2130,-80.5330,1.5,13.74,11111222 
ENP,ioos.station.NOAA.NDBC:TCVF1:1,2019-09-08T06:00:00Z,25.2130,-80.5330,1.5,12.75,11111222 
ENP,ioos.station.NOAA.NDBC:TCVF1:1,2019-09-08T07:00:00Z,25.2130,-80.5330,1.5,12.36,11111222 
ENP,ioos.station.NOAA.NDBC:TCVF1:1,2019-09-08T08:00:00Z,25.2130,-80.5330,1.5,12.17,11111222 
ENP,ioos.station.NOAA.NDBC:TCVF1:1,2019-09-08T09:00:00Z,25.2130,-80.5330,1.5,12.04,11111222 
ENP,ioos.station.NOAA.NDBC:TCVF1:1,2019-09-08T10:00:00Z,25.2130,-80.5330,1.5,12.04,11111222 
ENP,ioos.station.NOAA.NDBC:TCVF1:1,2019-09-08T11:00:00Z,25.2130,-80.5330,1.5,12.1,11111222 
ENP,ioos.station.NOAA.NDBC:TCVF1:1,2019-09-08T12:00:00Z,25.2130,-80.5330,1.5,27.55,11111222 
ENP,ioos.station.NOAA.NDBC:TCVF1:1,2019-09-08T13:00:00Z,25.2130,-80.5330,1.5,31.15,11111222 
ENP,ioos.station.NOAA.NDBC:TCVF1:1,2019-09-08T14:00:00Z,25.2130,-80.5330,1.5,31.66,11111222 
ENP,ioos.station.NOAA.NDBC:TCVF1:1,2019-09-08T15:00:00Z,25.2130,-80.5330,1.5,31.95,11111222 
ENP,ioos.station.NOAA.NDBC:TCVF1:1,2019-09-08T16:00:00Z,25.2130,-80.5330,1.5,32.02,11111222 
ENP,ioos.station.NOAA.NDBC:TCVF1:1,2019-09-08T17:00:00Z,25.2130,-80.5330,1.5,31.51,11111222 
ENP,ioos.station.NOAA.NDBC:TCVF1:1,2019-09-08T18:00:00Z,25.2130,-80.5330,1.5,31.95,11111222 
ENP,ioos.station.NOAA.NDBC:TCVF1:1,2019-09-08T19:00:00Z,25.2130,-80.5330,1.5,31.66,11111222 
ENP,ioos.station.NOAA.NDBC:TCVF1:1,2019-09-08T20:00:00Z,25.2130,-80.5330,1.5,30.35,11111222 
ENP,ioos.station.NOAA.NDBC:TCVF1:1,2019-09-08T21:00:00Z,25.2130,-80.5330,1.5,12.75,11111222 
ENP,ioos.station.NOAA.NDBC:TCVF1:1,2019-09-08T22:00:00Z,25.2130,-80.5330,1.5,11.19,11111222 
ENP,ioos.station.NOAA.NDBC:TCVF1:1,2019-09-09T00:00:00Z,25.2130,-80.5330,1.5,11.0,11111222 
ENP,ioos.station.NOAA.NDBC:TCVF1:1,2019-09-09T01:00:00Z,25.2130,-80.5330,1.5,10.81,11111222 
ENP,ioos.station.NOAA.NDBC:TCVF1:1,2019-09-09T03:00:00Z,25.2130,-80.5330,1.5,11.97,11111222 
ENP,ioos.station.NOAA.NDBC:TCVF1:1,2019-09-09T04:00:00Z,25.2130,-80.5330,1.5,10.61,11111222 
ENP,ioos.station.NOAA.NDBC:TCVF1:1,2019-09-09T05:00:00Z,25.2130,-80.5330,1.5,10.16,11111222 
ENP,ioos.station.NOAA.NDBC:TCVF1:1,2019-09-09T06:00:00Z,25.2130,-80.5330,1.5,10.16,11111222 
ENP,ioos.station.NOAA.NDBC:TCVF1:1,2019-09-09T07:00:00Z,25.2130,-80.5330,1.5,10.04,11111222 
ENP,ioos.station.NOAA.NDBC:TCVF1:1,2019-09-09T08:00:00Z,25.2130,-80.5330,1.5,9.91,11111222 
ENP,ioos.station.NOAA.NDBC:TCVF1:1,2019-09-09T09:00:00Z,25.2130,-80.5330,1.5,9.78,11111222 
ENP,ioos.station.NOAA.NDBC:TCVF1:1,2019-09-09T10:00:00Z,25.2130,-80.5330,1.5,9.59,11111222 
ENP,ioos.station.NOAA.NDBC:TCVF1:1,2019-09-09T11:00:00Z,25.2130,-80.5330,1.5,9.34,11111222 
ENP,ioos.station.NOAA.NDBC:TCVF1:1,2019-09-09T12:00:00Z,25.2130,-80.5330,1.5,9.27,11111222 
ENP,ioos.station.NOAA.NDBC:TCVF1:1,2019-09-09T13:00:00Z,25.2130,-80.5330,1.5,9.15,11111222 
ENP,ioos.station.NOAA.NDBC:TCVF1:1,2019-09-09T14:00:00Z,25.2130,-80.5330,1.5,9.15,11111222 
ENP,ioos.station.NOAA.NDBC:TCVF1:1,2019-09-09T15:00:00Z,25.2130,-80.5330,1.5,19.38,11111222 
ENP,ioos.station.NOAA.NDBC:TCVF1:1,2019-09-09T16:00:00Z,25.2130,-80.5330,1.5,19.86,11111222 
ENP,ioos.station.NOAA.NDBC:TCVF1:1,2019-09-09T20:00:00Z,25.2130,-80.5330,1.5,8.77,11111222 
ENP,ioos.station.NOAA.NDBC:TCVF1:1,2019-09-09T21:00:00Z,25.2130,-80.5330,1.5,8.7,11111222 
ENP,ioos.station.NOAA.NDBC:TCVF1:1,2019-09-09T22:00:00Z,25.2130,-80.5330,1.5,8.7,11111222 
ENP,ioos.station.NOAA.NDBC:TCVF1:1,2019-09-09T23:00:00Z,25.2130,-80.5330,1.5,8.65,11111222 
ENP,ioos.station.NOAA.NDBC:TCVF1:1,2019-09-10T00:00:00Z,25.2130,-80.5330,1.5,8.59,11111222 
ENP,ioos.station.NOAA.NDBC:TCVF1:1,2019-09-10T01:00:00Z,25.2130,-80.5330,1.5,8.56,11111222 
ENP,ioos.station.NOAA.NDBC:TCVF1:1,2019-09-10T03:00:00Z,25.2130,-80.5330,1.5,8.58,11111222 
ENP,ioos.station.NOAA.NDBC:TCVF1:1,2019-09-10T04:00:00Z,25.2130,-80.5330,1.5,8.7,11111222 
ENP,ioos.station.NOAA.NDBC:TCVF1:1,2019-09-10T05:00:00Z,25.2130,-80.5330,1.5,8.7,11111222 
ENP,ioos.station.NOAA.NDBC:TCVF1:1,2019-09-10T06:00:00Z,25.2130,-80.5330,1.5,8.72,11111222 
ENP,ioos.station.NOAA.NDBC:TCVF1:1,2019-09-10T07:00:00Z,25.2130,-80.5330,1.5,8.74,11111222 
ENP,ioos.station.NOAA.NDBC:TCVF1:1,2019-09-10T08:00:00Z,25.2130,-80.5330,1.5,8.83,11111222 
ENP,ioos.station.NOAA.NDBC:TCVF1:1,2019-09-10T09:00:00Z,25.2130,-80.5330,1.5,10.68,11111222 
ENP,ioos.station.NOAA.NDBC:TCVF1:1,2019-09-10T10:00:00Z,25.2130,-80.5330,1.5,8.89,11111222 
ENP,ioos.station.NOAA.NDBC:TCVF1:1,2019-09-10T11:00:00Z,25.2130,-80.5330,1.5,8.89,11111222 
ENP,ioos.station.NOAA.NDBC:TCVF1:1,2019-09-10T12:00:00Z,25.2130,-80.5330,1.5,8.89,11111222 
ENP,ioos.station.NOAA.NDBC:TCVF1:1,2019-09-10T13:00:00Z,25.2130,-80.5330,1.5,8.96,11111222 
ENP,ioos.station.NOAA.NDBC:TCVF1:1,2019-09-10T14:00:00Z,25.2130,-80.5330,1.5,8.96,11111222 
ENP,ioos.station.NOAA.NDBC:TCVF1:1,2019-09-10T15:00:00Z,25.2130,-80.5330,1.5,8.89,11111222 
ENP,ioos.station.NOAA.NDBC:TCVF1:1,2019-09-10T16:00:00Z,25.2130,-80.5330,1.5,8.89,11111222 
ENP,ioos.station.NOAA.NDBC:TCVF1:1,2019-09-10T17:00:00Z,25.2130,-80.5330,1.5,8.89,11111222 
ENP,ioos.station.NOAA.NDBC:TCVF1:1,2019-09-10T18:00:00Z,25.2130,-80.5330,1.5,8.83,11111222 
ENP,ioos.station.NOAA.NDBC:TCVF1:1,2019-09-10T19:00:00Z,25.2130,-80.5330,1.5,8.77,11111222 
ENP,ioos.station.NOAA.NDBC:TCVF1:1,2019-09-10T20:00:00Z,25.2130,-80.5330,1.5,8.7,11111222 
ENP,ioos.station.NOAA.NDBC:TCVF1:1,2019-09-10T21:00:00Z,25.2130,-80.5330,1.5,8.66,11111222 
ENP,ioos.station.NOAA.NDBC:TCVF1:1,2019-09-10T22:00:00Z,25.2130,-80.5330,1.5,8.7,11111222 
ENP,ioos.station.NOAA.NDBC:TCVF1:1,2019-09-10T23:00:00Z,25.2130,-80.5330,1.5,8.7,11111222 
ENP,ioos.station.NOAA.NDBC:TCVF1:1,2019-09-11T00:00:00Z,25.2130,-80.5330,1.5,8.7,11111222 
ENP,ioos.station.NOAA.NDBC:TCVF1:1,2019-09-11T01:00:00Z,25.2130,-80.5330,1.5,8.75,11111222 
ENP,ioos.station.NOAA.NDBC:TCVF1:1,2019-09-11T03:00:00Z,25.2130,-80.5330,1.5,8.83,11111222 
ENP,ioos.station.NOAA.NDBC:TCVF1:1,2019-09-11T04:00:00Z,25.2130,-80.5330,1.5,8.89,11111222 
ENP,ioos.station.NOAA.NDBC:TCVF1:1,2019-09-11T05:00:00Z,25.2130,-80.5330,1.5,9.02,11111222 
ENP,ioos.station.NOAA.NDBC:TCVF1:1,2019-09-11T06:00:00Z,25.2130,-80.5330,1.5,9.15,11111222 
ENP,ioos.station.NOAA.NDBC:TCVF1:1,2019-09-11T07:00:00Z,25.2130,-80.5330,1.5,9.21,11111222 
ENP,ioos.station.NOAA.NDBC:TCVF1:1,2019-09-11T08:00:00Z,25.2130,-80.5330,1.5,9.34,11111222 
ENP,ioos.station.NOAA.NDBC:TCVF1:1,2019-09-11T09:00:00Z,25.2130,-80.5330,1.5,9.4,11111222 
ENP,ioos.station.NOAA.NDBC:TCVF1:1,2019-09-11T10:00:00Z,25.2130,-80.5330,1.5,9.4,11111222 
ENP,ioos.station.NOAA.NDBC:TCVF1:1,2019-09-11T11:00:00Z,25.2130,-80.5330,1.5,9.34,11111222 
ENP,ioos.station.NOAA.NDBC:TCVF1:1,2019-09-11T12:00:00Z,25.2130,-80.5330,1.5,9.27,11111222 
ENP,ioos.station.NOAA.NDBC:TCVF1:1,2019-09-11T13:00:00Z,25.2130,-80.5330,1.5,9.27,11111222 
ENP,ioos.station.NOAA.NDBC:TCVF1:1,2019-09-11T14:00:00Z,25.2130,-80.5330,1.5,9.21,11111222 
ENP,ioos.station.NOAA.NDBC:TCVF1:1,2019-09-11T15:00:00Z,25.2130,-80.5330,1.5,9.21,11111222 
ENP,ioos.station.NOAA.NDBC:TCVF1:1,2019-09-11T16:00:00Z,25.2130,-80.5330,1.5,8.26,11111222 
ENP,ioos.station.NOAA.NDBC:TCVF1:1,2019-09-11T18:00:00Z,25.2130,-80.5330,1.5,9.02,11111222 
ENP,ioos.station.NOAA.NDBC:TCVF1:1,2019-09-11T19:00:00Z,25.2130,-80.5330,1.5,8.96,11111222 
ENP,ioos.station.NOAA.NDBC:TCVF1:1,2019-09-11T20:00:00Z,25.2130,-80.5330,1.5,8.83,11111222 
ENP,ioos.station.NOAA.NDBC:TCVF1:1,2019-09-11T21:00:00Z,25.2130,-80.5330,1.5,8.64,11111222 
ENP,ioos.station.NOAA.NDBC:TCVF1:1,2019-09-11T22:00:00Z,25.2130,-80.5330,1.5,8.58,11111222 
ENP,ioos.station.NOAA.NDBC:TCVF1:1,2019-09-11T23:00:00Z,25.2130,-80.5330,1.5,8.39,11111222 
ENP,ioos.station.NOAA.NDBC:TCVF1:1,2019-09-12T00:00:00Z,25.2130,-80.5330,1.5,8.36,11111222 
ENP,ioos.station.NOAA.NDBC:TCVF1:1,2019-09-12T01:00:00Z,25.2130,-80.5330,1.5,8.33,11111222 
ENP,ioos.station.NOAA.NDBC:TCVF1:1,2019-09-12T03:00:00Z,25.2130,-80.5330,1.5,8.35,11111222 
ENP,ioos.station.NOAA.NDBC:TCVF1:1,2019-09-12T04:00:00Z,25.2130,-80.5330,1.5,8.37,11111222 
ENP,ioos.station.NOAA.NDBC:TCVF1:1,2019-09-12T05:00:00Z,25.2130,-80.5330,1.5,8.39,11111222 
ENP,ioos.station.NOAA.NDBC:TCVF1:1,2019-09-12T06:00:00Z,25.2130,-80.5330,1.5,8.41,11111222 
ENP,ioos.station.NOAA.NDBC:TCVF1:1,2019-09-12T07:00:00Z,25.2130,-80.5330,1.5,8.45,11111222 
ENP,ioos.station.NOAA.NDBC:TCVF1:1,2019-09-12T08:00:00Z,25.2130,-80.5330,1.5,8.49,11111222 
ENP,ioos.station.NOAA.NDBC:TCVF1:1,2019-09-12T09:00:00Z,25.2130,-80.5330,1.5,8.51,11111222 
ENP,ioos.station.NOAA.NDBC:TCVF1:1,2019-09-12T10:00:00Z,25.2130,-80.5330,1.5,8.51,11111222 
ENP,ioos.station.NOAA.NDBC:TCVF1:1,2019-09-12T11:00:00Z,25.2130,-80.5330,1.5,8.58,11111222 
ENP,ioos.station.NOAA.NDBC:TCVF1:1,2019-09-12T12:00:00Z,25.2130,-80.5330,1.5,8.51,11111222 
ENP,ioos.station.NOAA.NDBC:TCVF1:1,2019-09-12T13:00:00Z,25.2130,-80.5330,1.5,8.51,11111222 
ENP,ioos.station.NOAA.NDBC:TCVF1:1,2019-09-12T14:00:00Z,25.2130,-80.5330,1.5,8.45,11111222 
ENP,ioos.station.NOAA.NDBC:TCVF1:1,2019-09-13T18:00:00Z,25.2130,-80.5330,1.5,7.75,11111222 
ENP,ioos.station.NOAA.NDBC:TCVF1:1,2019-09-13T19:00:00Z,25.2130,-80.5330,1.5,7.74,11111222 
ENP,ioos.station.NOAA.NDBC:TCVF1:1,2019-09-13T20:00:00Z,25.2130,-80.5330,1.5,7.73,11111222 
ENP,ioos.station.NOAA.NDBC:TCVF1:1,2019-09-13T21:00:00Z,25.2130,-80.5330,1.5,7.74,11111222 
ENP,ioos.station.NOAA.NDBC:TCVF1:1,2019-09-13T22:00:00Z,25.2130,-80.5330,1.5,7.72,11111222 